Regional Weather Roundup
Issued by NWS New Orleans/Baton Rouge, LA

Home | Current Version | Previous Version | Graphics & Text | Print | Product List | Glossary On
Versions: 1 2 3 4 5 6 7 8 9 10 11 12 13 14 15 16 17 18 19 20 21 22 23 24 25 26 27 28 29 30 31 32 33 34 35 36 37 38 39 40 41 42 43 44 45 46 47 48 49 50
922
ASUS44 KLIX 011710
RWRLIX
NEW ORLEANS REGIONAL WEATHER ROUNDUP
NATIONAL WEATHER SERVICE NEW ORLEANS LA
1200 PM CDT FRI AUG 01 2014

NOTE: "FAIR" INDICATES FEW OR NO CLOUDS BELOW 12,000 FEET WITH NO
      SIGNIFICANT WEATHER AND/OR OBSTRUCTIONS TO VISIBILITY.
      SKY/WX - SKY CONDITION AND SIGNIFICANT WEATHER.
      TMP - AIR TEMPERATURE.     DP    - DEWPOINT TEMPERATURE.
      RH  - RELATIVE HUMIDITY.   PRES  - PRESSURE.
      HI  - HEAT INDEX.          WCI   - WIND CHILL INDEX.

*  THESE STATIONS ARE NOT NWS OR FAA STATIONS AND ARE NOT UNDER
   NWS QUALITY CONTROL.

LAZ038-040-048-061>063-065>067-069-011800-
SOUTHEAST LOUISIANA

CITY           SKY/WX    TMP DP  RH WIND       PRES   REMARKS
N.O. AUDUBON     N/A     88  68  50 MISG        N/A
N.O. INTL ARPT CLOUDY    84  69  60 S6        30.01S
N.O. LAKEFRONT PTSUNNY   85  69  58 E7        30.02S
N.O. DOWNTOWN*   N/A     88  66  48 SE3       30.01S
SLIDELL        CLOUDY    85  68  56 NE3       30.01F
BATON ROUGE    CLOUDY    82  74  76 E7        30.00F
BOOTHVILLE     PTSUNNY   83  67  58 CALM      30.02F
BELLE CHASSE   CLOUDY    85  68  56 E5        30.00F HAZE
BOGALUSA*      PTSUNNY   78  68  71 CALM      30.05S
GALLIANO*      NOT AVBL
NEW ROADS*     PTSUNNY   77  74  91 E6        30.00F FOG
GONZALES*        N/A     83  73  71 S3        30.00F
HAMMOND*       CLOUDY    81  68  65 CALM      30.04S
HOUMA*         PTSUNNY   84  64  51 SE6       30.01F
PORT FOURCHON* SUNNY     84  70  61 SE7       30.02F

$$

MSZ070-080>082-011800-
SOUTHERN MISSISSIPPI

CITY           SKY/WX    TMP DP  RH WIND       PRES   REMARKS
MCCOMB         LGT RAIN  72  68  87 E3        30.05R FOG
GULFPORT       CLOUDY    83  68  60 CALM      30.02S
BILOXI         CLOUDY    79  69  70 N3        30.02S
PASCAGOULA     CLOUDY    83  67  58 N3        30.02F
STENNIS ARPT*  MOSUNNY  N/A N/A N/A CALM      30.03R

$$

COASTAL OBSERVATIONS
LAKE AND NEARSHORE STATIONS

STATION/POSITION TIME  TEMP    WIND        PRES    WAVE
                       AIR SEA DIR/SP/G            HT/PER
                 (UTC) (F)     (DEG/KT/KT) (MB)    (FT/S)
PASCAGOULA       1700   83      CALM  /  2 1015.7
WAVELAND YACHT   1700   81      60/  2/  3 1016.1
GRAND ISLE       1700   83 86  150/  3/  4 1016.9
SOUTHWEST PASS   1700   89 85   70/  4/  5 1016.7
NEW CANAL        1700   84 83   80/  7/ 10 1016.5
SHELL BEACH      1700   83 81   20/  5/  6 1016.1

OFFSHORE STATIONS

STATION/POSITION TIME  TEMP    WIND        PRES    WAVE
                       AIR SEA DIR/SP/G            HT/PER
                 (UTC) (F)     (DEG/KT/KT) (MB)    (FT/S)
64 S DAUPHIN ISL 1620   82 86  320/  2/  4 1016.6

$$




USA.gov is the U.S. government's official web portal to all federal, state and local government web resources and services.